[[{"header":{"parameterUnit":"m.s-1","parameterCategory":1,"la1":30.2991,"la2":30.254,"lo1":-89.0895,"lo2":-89.0444,"dy":0.0017,"dx":0.0017,"nx":28,"ny":28,"refTime":"2024-08-05T09:00:00:Z","depth":0,"parameterNumber":2,"parameterNumberName":"U-component_of_WINDS"},"data":[0,0,0,0,0,0,0,0,0,0,0,0,0,0,0,0,0,0,0,0,0,0,0,0,0,0,0,0,0,0,0,0,0,0,0,0,0,0,0,0,0,0,0,0,0,0,0,0,0,0,0,0,0,0,0,0,0,0,0.7845,0.7846,0,0.7942,0.7943,0.7944,0.7937,0.7935,0.7934,0.7932,0.8034,0.8038,0.8042,0,0,0,0,0,0,0,0,0,0,0,0,0,0.7658,0.7662,0.7845,0.7846,0.7848,0.7942,0.7943,0.7944,0.7937,0.7935,0.7933,0.7932,0.8033,0.8038,0.8043,0,0,0,0,0,0,0,0,0,0,0,0,0,0.7746,0.7663,0.7845,0.7855,0.7857,0.7942,0.7943,0.7945,0.7937,0.7935,0.7933,0.7931,0.8031,0.8037,0.8043,0.8125,0,0,0.8062,0.8065,0,0,0,0,0,0,0,0,0.7741,0.7753,0.7852,0.7855,0.7857,0.7925,0.7915,0.8005,0.7938,0.7907,0.7932,0.793,0.8,0.8008,0.8031,0.813,0.8134,0.8062,0.8066,0.8069,0.8071,0,0,0,0,0,0,0,0.7735,0.7748,0.7884,0.7854,0.7857,0.7856,0.7866,0.7932,0.7965,0.7909,0.7909,0.792,0.8001,0.8026,0.8034,0.8136,0.8062,0.8068,0.8072,0.8074,0.8309,0.8311,0,0,0,0,0,0,0.7726,0.7743,0.7881,0.7886,0.7792,0.7861,0.7873,0.7905,0.7964,0.7971,0.7922,0.792,0.8016,0.8027,0.8037,0.8139,0.8069,0.8075,0.8078,0.8306,0.8309,0.8312,0,0,0,0,0,0,0.7722,0.7738,0.7877,0.7815,0.7832,0.7867,0.7904,0.7908,0.7933,0.7973,0.798,0.7941,0.8015,0.8029,0.8104,0.8142,0.8077,0.8083,0.8303,0.8307,0.8311,0.8342,0,0,0,0,0,0,0.7716,0.7737,0.7767,0.7816,0.7836,0.794,0.7906,0.7912,0.7944,0.7941,0.7993,0.8,0.8014,0.8095,0.811,0.815,0.8088,0.83,0.8305,0.831,0.8337,0.8346,0.8353,0,0,0,0,0,0.771,0.7772,0.7768,0.7785,0.7874,0.7942,0.7954,0.7969,0.7947,0.7978,0.8005,0.7998,0.8135,0.8102,0.8119,0.8162,0.8298,0.8304,0.8309,0.8334,0.8344,0.8353,0,0,0,0,0,0,0.7727,0.7778,0.7775,0.7855,0.7894,0.7941,0.7981,0.7979,0.8027,0.8022,0.8039,0.8051,0.8127,0.8152,0.8114,0.8245,0.8214,0.8223,0.8227,0.8237,0.8245,0.8238,0.8093,0,0,0,0,0,0.774,0.779,0.7832,0.7899,0.7919,0.7947,0.7977,0.7985,0.8027,0.8044,0.8075,0.8117,0.817,0.8205,0.8255,0.834,0.8353,0.8378,0.8386,0.8392,0.8401,0.8451,0.8463,0.8331,0.8331,0.8331,0,0,0.7768,0.7802,0.7833,0.7903,0.7935,0.7988,0.7961,0.8017,0.8058,0.8053,0.8126,0.815,0.8199,0.828,0.8317,0.8302,0.844,0.84,0.8405,0.841,0.8458,0.847,0.8481,0.8335,0.8334,0.8334,0,0,0.7846,0.7876,0.7935,0.7968,0.8016,0.8034,0.8048,0.8096,0.8112,0.8185,0.8184,0.8232,0.8322,0.8357,0.8387,0.848,0.8477,0.8496,0.8539,0.8587,0.8597,0.8607,0.8642,0.8655,0.8504,0.8504,0.8504,0,0.7875,0.7953,0.7966,0.8024,0.8056,0.8054,0.8115,0.8146,0.8209,0.8232,0.8214,0.8329,0.8361,0.8451,0.8474,0.8497,0.8516,0.8491,0.8594,0.8604,0.8613,0.8647,0.866,0.8506,0.8506,0.8506,0.8506,0,0.7988,0.8042,0.8085,0.8145,0.8182,0.8241,0.8265,0.8301,0.8306,0.8326,0.8403,0.8441,0.8501,0.8522,0.8528,0.8615,0.8604,0.859,0.856,0.8628,0.866,0.8673,0.8509,0.8509,0.8508,0.8507,0,0,0.808,0.8147,0.8163,0.8191,0.8244,0.8288,0.8348,0.8405,0.8437,0.848,0.8533,0.861,0.8598,0.8632,0.8641,0.8683,0.8757,0.8664,0.8666,0.8682,0.8858,0.887,0.8885,0.8755,0.8757,0.8759,0.8855,0,0.8165,0.827,0.8284,0.8379,0.8431,0.843,0.8483,0.8522,0.8544,0.8592,0.8616,0.8671,0.865,0.8671,0.8712,0.874,0.8793,0.8733,0.8806,0.8809,0.8796,0.8901,0.8913,0.9002,0.8868,0.887,0.8871,0,0.8278,0.8325,0.8424,0.8472,0.8495,0.8542,0.8597,0.8643,0.8688,0.8701,0.8739,0.8744,0.8808,0.8774,0.8864,0.8822,0.8853,0.8872,0.8876,0.8885,0.8845,0.8915,0.903,0.9044,0.8891,0.889,0.8888,0,0.8338,0.8426,0.8497,0.8521,0.8578,0.8612,0.8638,0.8681,0.8716,0.8764,0.8787,0.8842,0.8873,0.8917,0.8937,0.891,0.9028,0.8994,0.9042,0.9042,0.9068,0.9067,0.9192,0.9085,0.9084,0.9084,0.9084,0,0.8433,0.8494,0.8525,0.8569,0.8639,0.8655,0.8724,0.8749,0.8788,0.8838,0.884,0.8888,0.8911,0.8962,0.8979,0.9053,0.9066,0.908,0.9084,0.9081,0.9079,0.9103,0.9098,0.9088,0.9087,0.9086,0.9085,0,0.8513,0.8535,0.8613,0.8661,0.8675,0.8725,0.8767,0.8811,0.8831,0.8895,0.8911,0.8945,0.9006,0.903,0.9105,0.9116,0.9202,0.92,0.9186,0.9188,0.9236,0.9232,0.9382,0.9404,0.928,0.9281,0.9282,0,0.8572,0.862,0.8673,0.8707,0.8733,0.8787,0.8822,0.8841,0.8878,0.8934,0.8972,0.9033,0.9082,0.918,0.9212,0.927,0.9271,0.932,0.928,0.9276,0.9275,0.9273,0.9279,0.9328,0.9329,0.933,0.9331,0,0.8677,0.8687,0.8737,0.8792,0.8834,0.8878,0.8921,0.8949,0.8974,0.9016,0.9078,0.9116,0.9193,0.9254,0.9314,0.9342,0.9342,0.9343,0.9357,0.9356,0.9347,0.9355,0.9209,0.934,0.9339,0.9338,0.9338,0.9337,0.8751,0.8794,0.8838,0.8895,0.8929,0.897,0.9014,0.9041,0.9093,0.9156,0.9164,0.9231,0.9278,0.9358,0.9388,0.9443,0.943,0.9451,0.9456,0.9462,0.9466,0.9337,0.9453,0.9453,0.9453,0.9453,0.9453,0,0.8858,0.8887,0.8938,0.8999,0.9044,0.9038,0.9086,0.9125,0.9184,0.9226,0.9275,0.9348,0.9408,0.9445,0.9506,0.9542,0.9544,0.9558,0.9556,0.9563,0.9473,0.9455,0.9555,0.9555,0.9555,0.9555,0.9555,0.9555,0.8919,0.8992,0.9007,0.9098,0.9127,0.9192,0.922,0.9259,0.9293,0.9374,0.9424,0.9447,0.9488,0.9552,0.9608,0.9617,0.964,0.9656,0.9665,0.958,0.9569,0.9559,0.9543,0.966,0.966,0.9751,0.9752,0.9753]},{"header":{"parameterUnit":"m.s-1","parameterCategory":1,"la1":30.2991,"la2":30.254,"lo1":-89.0895,"lo2":-89.0444,"dy":0.0017,"dx":0.0017,"nx":28,"ny":28,"refTime":"2024-08-05T09:00:00:Z","depth":0,"parameterNumber":3,"parameterNumberName":"V-component_of_WINDS"},"data":[0,0,0,0,0,0,0,0,0,0,0,0,0,0,0,0,0,0,0,0,0,0,0,0,0,0,0,0,0,0,0,0,0,0,0,0,0,0,0,0,0,0,0,0,0,0,0,0,0,0,0,0,0,0,0,0,0,0,-2.8936,-2.8937,0,-2.9051,-2.9052,-2.9054,-2.915,-2.9151,-2.9152,-2.9153,-2.927,-2.9272,-2.9274,0,0,0,0,0,0,0,0,0,0,0,0,0,-2.8801,-2.8803,-2.8936,-2.8937,-2.8939,-2.9051,-2.9053,-2.9054,-2.915,-2.9151,-2.9152,-2.9153,-2.9269,-2.9272,-2.9274,0,0,0,0,0,0,0,0,0,0,0,0,0,-2.8882,-2.8804,-2.8936,-2.9,-2.9007,-2.9051,-2.9053,-2.9055,-2.9149,-2.9151,-2.9152,-2.9154,-2.9268,-2.9271,-2.9275,-2.9263,0,0,-2.9284,-2.9286,0,0,0,0,0,0,0,0,-2.8877,-2.8887,-2.8989,-2.8996,-2.9004,-2.9088,-2.9048,-2.9125,-2.9149,-2.9095,-2.9153,-2.9155,-2.9208,-2.9216,-2.9234,-2.9269,-2.9274,-2.9285,-2.9287,-2.9288,-2.9289,0,0,0,0,0,0,0,-2.8872,-2.8883,-2.8982,-2.8991,-2.8999,-2.9024,-2.9037,-2.9063,-2.9141,-2.91,-2.9107,-2.912,-2.9212,-2.9231,-2.9238,-2.9276,-2.9285,-2.9287,-2.9289,-2.9291,-2.9312,-2.931,0,0,0,0,0,0,-2.8856,-2.8877,-2.8978,-2.8985,-2.8943,-2.9025,-2.904,-2.9059,-2.9141,-2.9155,-2.9118,-2.9124,-2.9225,-2.9234,-2.9242,-2.9238,-2.9288,-2.9291,-2.9293,-2.9313,-2.9311,-2.931,0,0,0,0,0,0,-2.8853,-2.8864,-2.8973,-2.8933,-2.8949,-2.9026,-2.9047,-2.9061,-2.908,-2.9155,-2.917,-2.9123,-2.9226,-2.9238,-2.9259,-2.9243,-2.9292,-2.9295,-2.9315,-2.9313,-2.9311,-2.9227,0,0,0,0,0,0,-2.8848,-2.8862,-2.8858,-2.8932,-2.8951,-2.8987,-2.9046,-2.9062,-2.9085,-2.9093,-2.9163,-2.9177,-2.9228,-2.9253,-2.9262,-2.9249,-2.9298,-2.9316,-2.9314,-2.9311,-2.9231,-2.9222,-2.9214,0,0,0,0,0,-2.8843,-2.8829,-2.8857,-2.8869,-2.8947,-2.8986,-2.8996,-2.9056,-2.9083,-2.9081,-2.913,-2.9174,-2.9243,-2.9255,-2.9265,-2.9252,-2.9318,-2.9315,-2.9312,-2.9235,-2.9224,-2.9214,0,0,0,0,0,0,-2.8749,-2.8839,-2.8872,-2.8881,-2.8925,-2.9002,-2.9,-2.9042,-2.9079,-2.9085,-2.9158,-2.9173,-2.9186,-2.9221,-2.9232,-2.9248,-2.9287,-2.9285,-2.9225,-2.9215,-2.9206,-2.9198,-2.9301,0,0,0,0,0,-2.873,-2.8753,-2.8831,-2.8831,-2.8852,-2.8922,-2.8941,-2.8984,-2.9032,-2.9051,-2.9101,-2.9147,-2.9179,-2.9199,-2.9232,-2.9237,-2.9255,-2.9234,-2.9225,-2.9218,-2.9216,-2.9225,-2.9217,-2.93,-2.93,-2.93,0,0,-2.8689,-2.8741,-2.8751,-2.8814,-2.8853,-2.8877,-2.8937,-2.8958,-2.8977,-2.9054,-2.9078,-2.9117,-2.9172,-2.9186,-2.9194,-2.9215,-2.9197,-2.9214,-2.9207,-2.921,-2.9221,-2.9213,-2.9206,-2.9298,-2.9298,-2.9298,0,0,-2.8628,-2.8669,-2.8676,-2.8715,-2.8774,-2.8821,-2.8822,-2.8894,-2.8923,-2.8948,-2.9007,-2.9031,-2.9084,-2.9123,-2.9149,-2.9107,-2.915,-2.9115,-2.9071,-2.9079,-2.9072,-2.9067,-2.9055,-2.9049,-2.9114,-2.9113,-2.9113,0,-2.857,-2.8608,-2.8674,-2.8693,-2.872,-2.8792,-2.8801,-2.8835,-2.8902,-2.8919,-2.8942,-2.9013,-2.9055,-2.9081,-2.9071,-2.9089,-2.9095,-2.9108,-2.9068,-2.9063,-2.9059,-2.9048,-2.9043,-2.9109,-2.9109,-2.911,-2.911,0,-2.8536,-2.8562,-2.856,-2.8625,-2.8652,-2.8665,-2.8734,-2.8753,-2.8794,-2.8839,-2.8866,-2.892,-2.8967,-2.8976,-2.9016,-2.9008,-2.902,-2.9054,-2.9095,-2.9046,-2.9037,-2.9033,-2.9103,-2.9104,-2.9105,-2.9107,0,0,-2.8417,-2.852,-2.8519,-2.8551,-2.8623,-2.8645,-2.8663,-2.871,-2.8727,-2.8771,-2.879,-2.8835,-2.8868,-2.8898,-2.8943,-2.895,-2.8917,-2.8984,-2.8987,-2.8972,-2.8915,-2.889,-2.8884,-2.8946,-2.8945,-2.8945,-2.8912,0,-2.837,-2.8407,-2.8468,-2.8485,-2.8512,-2.8582,-2.8599,-2.8645,-2.8689,-2.8718,-2.8766,-2.8799,-2.8839,-2.8858,-2.8867,-2.8918,-2.8907,-2.8921,-2.8966,-2.8966,-2.8951,-2.8879,-2.8852,-2.8818,-2.8908,-2.8908,-2.8907,0,-2.8318,-2.8361,-2.8382,-2.8456,-2.8469,-2.8482,-2.8533,-2.856,-2.8615,-2.8647,-2.8682,-2.8732,-2.8757,-2.8793,-2.8829,-2.8838,-2.886,-2.8888,-2.8889,-2.8896,-2.8935,-2.8887,-2.8809,-2.8804,-2.8902,-2.8902,-2.8903,0,-2.8233,-2.8295,-2.8317,-2.8342,-2.8428,-2.8436,-2.8472,-2.853,-2.8556,-2.86,-2.8618,-2.8664,-2.8689,-2.8724,-2.8786,-2.8806,-2.8817,-2.8857,-2.8846,-2.8844,-2.8846,-2.8845,-2.8772,-2.8856,-2.8856,-2.8856,-2.8856,0,-2.8175,-2.8185,-2.8281,-2.8294,-2.8309,-2.8379,-2.8392,-2.8435,-2.8486,-2.851,-2.8573,-2.8594,-2.8674,-2.8705,-2.8753,-2.8778,-2.8789,-2.8816,-2.8829,-2.8812,-2.8808,-2.8828,-2.8832,-2.8855,-2.8855,-2.8855,-2.8856,0,-2.8082,-2.8146,-2.8175,-2.8255,-2.8275,-2.8283,-2.8352,-2.8369,-2.8417,-2.8447,-2.8458,-2.8534,-2.8574,-2.8639,-2.8697,-2.8731,-2.8748,-2.8768,-2.8729,-2.8737,-2.8723,-2.8724,-2.8661,-2.8658,-2.8741,-2.874,-2.874,0,-2.8041,-2.8051,-2.8134,-2.8155,-2.8189,-2.8222,-2.825,-2.8321,-2.8347,-2.8413,-2.8422,-2.8468,-2.8508,-2.8569,-2.863,-2.8676,-2.87,-2.8675,-2.8707,-2.869,-2.8703,-2.8702,-2.8705,-2.8667,-2.8666,-2.8665,-2.8664,0,-2.7963,-2.7995,-2.8033,-2.8082,-2.8114,-2.8156,-2.8202,-2.8215,-2.8297,-2.8323,-2.8366,-2.8397,-2.8459,-2.8504,-2.856,-2.8598,-2.8645,-2.8653,-2.8654,-2.8636,-2.8615,-2.8629,-2.8711,-2.8654,-2.8655,-2.8656,-2.8657,-2.8657,-2.7897,-2.7911,-2.7972,-2.8013,-2.8055,-2.8097,-2.8118,-2.8169,-2.8206,-2.8263,-2.8302,-2.8343,-2.8402,-2.8482,-2.8518,-2.8552,-2.8572,-2.8572,-2.8572,-2.8572,-2.8566,-2.8608,-2.8562,-2.8562,-2.8563,-2.8563,-2.8563,0,-2.7824,-2.7868,-2.7905,-2.7968,-2.8001,-2.8043,-2.8096,-2.8121,-2.8156,-2.8207,-2.8247,-2.8298,-2.8343,-2.8408,-2.8458,-2.8473,-2.8496,-2.8484,-2.8485,-2.8494,-2.8543,-2.854,-2.8465,-2.8465,-2.8465,-2.8465,-2.8465,-2.8465,-2.779,-2.7817,-2.7857,-2.7907,-2.7951,-2.7992,-2.8019,-2.8059,-2.8101,-2.8155,-2.8193,-2.8236,-2.8294,-2.8349,-2.8394,-2.8412,-2.8429,-2.841,-2.8435,-2.8481,-2.849,-2.8498,-2.8495,-2.8413,-2.8412,-2.8383,-2.8383,-2.8383]}]]